RH
81 79 72 78 72 77 75 68 66 73 85 94 99 99 95 93 89 91 94 74 73 74 79 72 75 64 57 57 50 52 75 83 59 54 44 34 33 29 27 25 22 24 48 44 51
84 87 84 76 83 75 79 76 74 64 71 85 96 99 95 86 90 97 64 72 80 73 76 70 76 63 71 62 57 62 79 70 54 49 43 39 40 39 36 35 25 37 49 61 61
83 88 88 85 88 83 80 79 73 70 67 81 92 96 99 85 94 82 37 66 78 76 77 76 63 63 69 60 61 66 74 55 52 46 41 45 44 39 41 40 35 34 40 44 65
82 85 88 88 82 86 84 80 76 63 64 76 88 95 100 85 80 63 84 78 80 75 82 74 65 72 75 73 58 64 59 55 49 44 45 43 39 44 43 42 37 40 37 32 40
83 80 82 86 81 86 88 87 83 68 65 68 82 97 97 88 79 49 60 82 79 84 83 79 79 73 76 70 61 62 54 50 46 47 47 42 46 48 48 42 40 36 35 35 35
84 84 85 83 83 82 87 85 82 72 74 76 86 98 93 84 45 35 47 79 81 87 78 77 80 66 67 61 68 56 55 52 47 46 47 48 49 45 42 43 43 41 39 39 37
82 85 85 86 85 87 87 85 84 79 83 82 85 100 94 73 48 56 66 77 82 86 84 73 70 62 59 59 52 50 57 54 54 49 51 46 54 60 43 41 43 39 46 43 40
80 82 82 87 88 89 88 85 87 85 85 85 86 100 93 61 56 58 55 76 72 72 71 72 71 62 60 54 57 63 63 73 51 51 48 46 58 44 45 46 49 48 42 44 43
81 85 81 85 89 85 84 89 86 86 85 85 88 95 85 58 66 52 52 51 72 77 75 66 71 74 64 74 78 66 85 77 64 50 50 58 63 45 40 44 48 45 41 45 42
77 76 79 82 83 87 93 90 65 88 85 82 85 97 82 70 57 49 50 48 60 80 87 85 87 93 86 81 93 87 76 74 70 50 52 64 71 54 49 49 52 52 47 46 44
83 80 83 83 88 93 96 84 76 82 91 85 81 76 69 57 52 54 50 48 77 87 98 90 97 94 83 73 62 67 71 72 64 47 46 52 53 47 41 43 46 43 41 43 40
86 75 81 86 88 96 96 91 77 75 82 71 68 68 77 58 72 62 48 60 80 93 95 99 94 81 81 78 80 71 75 72 58 47 47 56 56 44 40 38 36 35 34 34 33
75 76 82 87 92 87 92 84 70 74 88 62 76 84 80 55 69 72 51 66 77 92 83 80 75 73 80 84 91 77 76 67 64 56 51 61 53 44 36 37 36 36 34 32 33
89 92 87 88 88 95 88 82 74 82 90 89 91 84 82 59 72 52 50 64 75 91 73 63 50 71 68 78 70 69 52 56 61 64 79 59 80 63 46 45 41 37 35 38 39
99 93 94 93 93 98 89 87 87 78 57 72 90 93 65 68 67 65 55 54 80 76 66 73 61 69 72 62 51 62 54 59 61 72 68 69 83 63 43 34 27 27 27 28 30
98 93 86 91 90 83 84 90 83 93 97 93 90 95 82 69 69 73 64 49 56 61 58 61 51 51 54 57 51 54 58 68 79 75 88 67 72 57 40 31 35 30 32 32 33
82 85 87 86 90 90 85 89 93 94 97 100 99 80 80 78 82 75 73 69 82 98 100 68 65 53 54 66 58 59 70 86 80 93 80 73 79 59 44 40 37 39 36 37 34
85 83 97 96 98 81 76 90 94 94 99 90 85 76 97 76 78 76 77 81 67 74 94 93 93 62 54 62 71 66 66 82 64 89 84 70 84 50 40 35 31 34 37 49 53
72 80 93 92 83 76 93 96 97 99 100 96 86 99 99 86 86 83 74 75 68 60 76 84 76 59 56 56 58 74 85 63 84 80 95 72 57 36 35 40 39 42 43 45 46
67 77 82 80 78 77 98 97 99 100 97 74 99 95 94 94 96 89 74 66 63 59 56 65 91 64 60 54 59 61 65 85 93 66 82 65 70 46 34 35 41 42 43 45 44
68 89 67 77 75 91 98 100 100 88 81 77 90 85 83 81 77 73 73 62 55 62 56 61 74 83 66 69 80 74 83 84 82 84 86 89 59 50 38 37 44 47 47 52 62
83 89 60 73 91 94 100 100 97 89 80 86 63 66 73 72 69 68 69 62 55 58 64 56 80 93 75 62 59 64 71 76 86 74 94 87 81 45 47 41 44 40 45 53 59
90 92 71 82 98 97 93 90 89 87 89 70 58 54 58 67 70 66 68 52 59 57 65 57 80 92 83 67 68 73 71 70 76 85 97 90 70 43 46 42 42 46 52 65 66
90 93 91 92 91 97 100 95 93 84 75 56 57 55 57 65 65 73 66 67 57 54 58 58 74 73 84 74 81 89 80 76 78 99 89 86 75 48 47 48 48 50 76 75 70
95 96 92 98 89 89 91 85 80 85 60 60 56 58 62 77 72 77 68 64 62 63 65 63 85 84 79 73 84 78 74 85 84 76 89 65 70 56 49 48 51 78 78 76 75
88 99 90 95 87 88 80 82 79 78 74 71 76 74 65 73 67 81 71 66 61 62 71 69 91 91 87 71 81 89 80 79 82 77 77 72 73 49 44 49 72 85 82 76 67
88 90 98 85 88 80 81 69 73 64 75 81 71 79 84 82 72 60 55 60 59 70 78 74 92 92 97 71 80 89 80 79 72 72 62 76 61 56 65 66 84 90 78 64 60
Wind_Speed
22 22 20 20 20 17 17 18 19 20 23 22 22 14 13 11 13 13 15 16 23 7 11 16 16 13 5 3 4 4 3 4 5 7 4 1 3 4 4 5 3 3 4 4 27
24 24 22 21 22 19 16 16 19 20 22 23 23 20 13 10 12 18 22 21 21 18 12 15 7 10 3 5 3 4 4 8 5 5 1 4 3 3 6 7 4 4 4 11 28
26 25 22 22 21 19 19 16 16 19 20 22 21 25 15 9 4 10 19 31 24 23 14 8 9 7 6 4 4 5 5 5 4 4 0 3 5 1 3 6 3 4 7 4 4
25 24 23 21 22 20 18 19 18 19 20 20 20 18 14 11 7 2 2 24 23 23 22 7 4 7 5 6 4 3 6 5 6 5 1 1 4 3 5 8 3 4 5 6 1
24 24 22 23 22 21 17 16 16 17 19 19 18 18 9 5 8 5 5 17 23 26 22 8 5 5 6 7 3 3 2 4 4 6 4 3 6 6 6 11 3 5 6 8 7
23 23 22 22 21 19 16 16 16 18 19 17 18 16 5 8 10 14 14 22 22 23 16 11 8 6 5 3 8 4 7 6 4 4 3 5 6 5 2 7 9 7 9 9 8
23 21 21 20 19 18 16 17 16 17 17 17 16 13 6 13 4 6 7 25 24 21 9 15 7 6 3 3 5 3 3 1 4 3 5 2 11 8 7 9 11 14 8 9 10
23 19 20 19 19 17 17 19 17 17 16 17 15 10 4 17 11 4 4 12 21 20 18 19 11 3 3 2 4 6 4 3 3 6 5 7 20 6 9 7 10 11 14 9 10
22 19 19 19 19 17 17 17 19 19 15 14 10 6 3 2 11 17 5 6 12 12 12 12 8 3 3 5 3 0 4 4 5 4 3 8 3 5 9 9 10 12 13 9 10
22 20 20 19 17 17 18 20 25 15 7 7 9 4 3 6 10 11 10 6 3 7 5 5 5 4 4 4 6 5 4 3 4 3 3 7 8 14 9 5 8 9 13 12 11
20 21 19 17 17 17 17 9 4 2 1 6 4 4 1 5 15 10 12 6 4 3 5 6 4 9 13 8 3 5 4 3 3 2 3 6 5 12 10 6 9 12 14 15 16
21 21 19 16 15 16 15 2 4 3 4 9 9 13 4 6 6 7 16 6 5 5 6 4 4 4 4 2 3 0 2 2 4 0 2 6 12 16 16 11 14 17 17 17 14
23 20 18 16 17 14 4 5 5 3 2 1 2 5 6 5 5 9 12 3 4 5 5 6 4 14 10 6 5 4 4 3 4 4 2 7 8 5 4 4 5 10 12 14 14
25 21 18 16 12 2 2 8 8 3 2 4 3 3 4 5 4 5 11 5 3 6 4 4 4 12 9 7 6 4 1 3 3 4 3 5 6 6 6 11 6 10 9 8 9
31 25 19 14 9 3 1 4 8 1 5 8 6 2 3 1 13 3 2 2 6 4 5 2 4 6 5 3 4 4 5 5 3 3 3 2 1 8 5 6 5 4 5 6 8
26 13 10 10 1 2 6 11 2 4 4 5 6 6 8 5 3 5 3 3 4 6 5 3 2 3 3 4 2 8 5 6 4 2 2 2 3 6 3 1 7 6 11 9 11
23 14 4 1 3 9 11 3 3 4 3 3 4 11 9 13 6 4 4 4 3 5 3 4 3 2 5 7 6 5 5 2 4 3 4 3 2 9 8 7 4 9 10 10 9
22 17 22 13 12 19 7 3 4 2 4 4 7 15 5 5 8 4 4 3 4 4 3 4 1 3 1 4 5 1 5 4 4 1 4 1 5 6 3 5 2 3 3 6 10
18 18 15 14 10 6 2 3 2 3 5 4 11 6 4 5 4 6 2 4 1 1 5 4 2 1 2 3 5 4 1 2 5 3 3 3 6 9 4 7 7 8 9 9 7
6 4 7 9 3 4 2 3 3 3 6 5 4 3 5 4 4 4 3 3 2 2 2 3 4 2 2 4 5 3 7 3 3 2 3 3 5 4 2 3 4 7 8 9 7
3 3 3 11 2 2 2 3 4 6 8 5 3 5 5 5 7 3 8 1 3 3 3 4 3 1 5 3 6 3 1 4 4 3 3 3 6 6 3 1 6 8 9 7 9
4 3 6 10 3 2 3 3 3 5 3 4 6 8 4 4 3 3 6 3 6 6 5 1 4 3 2 1 1 3 5 5 4 3 2 1 7 3 5 2 7 15 13 14 15
1 3 4 5 3 3 4 4 2 2 2 2 3 2 3 5 5 3 3 1 7 5 6 4 2 3 5 4 3 2 3 4 4 3 5 3 5 1 6 17 15 16 17 15 13
2 3 4 3 1 1 2 2 3 4 2 3 4 4 4 3 4 4 2 4 4 5 5 6 3 4 5 4 3 2 4 6 6 3 3 7 9 17 17 16 19 16 11 10 11
3 1 1 4 3 4 1 4 5 5 3 5 4 5 5 3 3 3 3 3 5 5 4 4 3 3 4 5 3 4 4 7 7 10 5 2 6 18 18 18 15 6 10 11 12
2 2 3 3 4 5 4 6 6 5 5 4 6 7 5 3 1 6 6 2 2 3 3 2 1 2 4 3 6 4 7 8 8 9 12 18 22 23 20 12 8 6 10 12 12
5 3 1 4 5 3 3 3 5 2 7 7 3 4 9 5 1 4 1 4 5 6 3 3 4 2 4 3 4 5 10 11 5 5 9 12 14 12 8 10 6 5 9 11 12
Wind_Direction
315 311 310 311 308 307 309 309 306 301 301 309 321 249 247 249 260 255 245 229 228 224 185 197 203 196 180 217 166 136 120 190 210 169 227 141 43 320 304 260 304 287 187 296 157
316 309 305 303 301 300 301 302 306 298 298 301 310 325 236 243 254 253 238 234 231 214 175 156 164 145 168 193 197 155 164 205 202 195 241 334 58 320 350 341 313 332 344 117 151
317 315 310 309 305 303 298 295 299 299 294 293 300 305 214 215 253 241 252 224 217 205 192 169 154 144 170 153 203 180 197 192 239 215 309 337 330 231 333 306 225 314 316 37 110
321 317 313 307 300 295 297 297 296 295 291 290 295 301 191 174 221 222 217 205 200 199 213 183 153 152 156 186 195 187 208 173 218 271 267 241 290 253 202 233 188 286 300 314 228
318 317 313 306 302 296 296 293 291 291 291 288 291 303 173 194 246 239 311 191 190 193 190 167 146 150 174 177 141 176 239 213 245 273 240 259 246 244 243 266 189 280 306 305 310
321 317 313 310 311 302 295 289 288 289 287 283 290 303 200 223 252 259 271 175 189 177 168 154 170 178 182 199 174 185 193 255 259 242 242 232 234 202 260 254 282 190 249 273 280
323 320 317 315 313 308 296 295 296 291 287 284 287 295 203 221 267 272 230 189 190 176 163 177 159 159 170 133 194 151 151 240 237 212 235 190 267 221 225 255 256 273 209 238 242
326 324 322 322 319 314 305 301 297 286 285 281 292 285 223 238 247 217 166 172 195 196 187 184 187 142 183 160 76 127 86 177 255 171 239 167 258 314 231 238 253 267 278 251 235
326 324 325 322 317 319 311 310 299 285 281 282 292 246 219 263 213 220 196 145 171 200 210 186 171 160 106 136 79 51 165 188 301 220 228 192 318 274 249 221 242 253 263 264 274
322 323 322 321 316 316 318 312 307 286 257 245 247 234 254 217 189 209 197 169 152 120 137 150 169 150 134 164 187 167 176 214 208 205 129 263 266 275 276 282 264 271 271 266 259
322 321 319 316 318 319 320 346 6 8 167 206 245 256 219 197 171 186 180 138 106 138 183 172 159 193 184 181 156 152 154 173 237 247 317 260 260 272 268 272 264 263 264 269 263
326 319 315 311 312 317 306 221 218 271 302 248 261 248 317 216 160 162 165 150 162 172 116 141 206 137 107 151 106 85 105 297 290 126 305 309 293 272 266 249 240 249 254 252 258
322 317 310 309 315 305 216 234 259 239 291 283 290 281 236 174 148 162 159 141 128 154 153 167 138 165 167 173 182 206 164 201 233 317 69 323 282 271 305 275 269 256 259 267 262
313 305 299 304 313 217 240 287 188 237 71 164 240 215 237 158 86 132 172 147 143 143 126 101 131 162 154 170 170 144 183 141 74 39 272 33 294 305 300 303 257 258 250 269 273
308 292 289 291 289 220 290 253 176 70 86 150 168 126 184 117 134 180 291 100 132 124 93 208 134 140 136 175 149 152 111 90 91 82 2 339 111 275 331 313 310 352 23 315 287
335 303 279 317 22 266 146 136 97 51 104 168 136 199 127 153 69 122 192 60 114 76 75 145 115 88 131 61 94 125 73 50 56 72 357 277 139 280 258 312 327 352 329 322 333
26 51 46 9 143 149 141 126 42 108 303 178 184 129 128 140 116 141 94 82 130 120 83 28 9 35 100 76 27 79 77 335 356 14 224 131 114 250 286 295 280 307 337 343 344
47 63 67 80 118 139 136 35 57 327 255 119 120 112 90 113 127 112 88 99 49 95 116 148 136 171 172 144 168 105 141 161 207 209 289 143 228 252 200 301 54 59 307 6 14
48 51 51 71 89 100 359 19 314 335 322 125 95 79 84 57 102 103 62 123 175 75 128 125 31 56 125 121 125 181 107 185 104 46 40 261 287 307 73 36 22 7 5 345 341
347 18 10 19 49 93 32 290 252 221 208 100 72 67 123 129 105 100 145 181 128 110 90 197 87 97 100 99 55 141 153 74 358 124 272 295 274 246 279 325 349 331 308 300 305
20 20 326 351 236 61 78 307 309 320 33 43 129 108 98 114 108 92 177 70 170 143 58 115 84 189 128 184 170 130 196 54 115 130 166 322 270 216 222 300 331 313 297 290 303
357 22 331 344 44 22 346 350 324 324 336 14 70 85 92 99 107 114 185 173 175 141 146 78 117 154 147 1 263 166 172 135 124 224 97 170 271 267 255 325 296 322 325 327 323
34 278 338 353 37 6 336 338 292 281 297 109 100 84 128 123 119 126 195 350 177 141 160 178 20 69 360 350 0 179 178 129 116 92 200 145 259 341 320 329 320 318 329 326 323
56 359 326 12 176 136 322 320 311 207 315 62 105 99 96 69 47 141 119 10 149 145 154 93 113 148 187 206 135 190 190 175 140 128 199 234 291 296 309 306 312 323 332 331 318
34 334 298 316 341 341 254 340 28 24 34 39 52 85 118 106 97 104 93 78 47 108 82 101 131 144 246 229 155 203 200 179 190 207 195 236 277 283 293 297 303 329 327 322 318
51 355 357 285 296 334 335 357 42 15 28 15 75 43 71 106 178 176 129 148 173 59 84 15 168 100 305 289 206 246 221 212 215 231 257 265 278 277 275 282 305 324 331 320 319
357 336 318 292 323 8 333 28 13 28 31 44 109 90 53 6 352 119 149 125 145 135 118 102 123 73 284 338 318 284 227 195 198 203 221 238 246 270 293 313 322 329 322 327 329